Location: Le Petit-Vavre
(46.5081°N, 1.5239°E)
Time: 14:49:03
(UTC+00:00)

BREEZE-M DEB (TANK) - Pass Details

Date: 03 March 2021
Orbit: 334 x 11904 km, 49.7° (Epoch: 19 April)

Event Time Altitude Azimuth Distance (km) Brightness Sun altitude
Rises 18:56:50 0° 207° (SSW) 2,252 6.9 -13.5°
Reaches altitude 10° 18:59:10 10° 182° (S) 1,263 5.2 -13.9°
Enters shadow 19:00:13 15° 156° (SSE) 1,016 4.5 -14.1°
